This demonstration page uses our WeatherBlox Daily Observations layout. Learn more.

36.17497, -115.13722

Hourly Observations for July 5, 2016

Temp ( °F °C ) Dew Point ( °F °C ) Humidity (%) Winds ( mph kmh ) Pressure ( in mb ) Visibility ( mi km ) Precip ( " mm )
12:53 am 00:53 Clear 89 31.7 30 -1.1 12 12 SW 7 11 29.68 1005 10 16.09344 0 0
1:53 am 01:53 Clear 89 31.7 29 -1.7 11 11 SW 10 17 29.65 1004 10 16.09344 0 0
2:53 am 02:53 Clear 85 29.4 30 -1.1 14 14 ENE 5 7 29.68 1005 10 16.09344 0 0
3:53 am 03:53 Clear 84 28.9 31 -0.6 15 15 S 7 11 29.68 1005 10 16.09344 0 0
4:53 am 04:53 Clear 81 27.2 31 -0.6 16 16 Calm 29.71 1006 10 16.09344 0 0
5:53 am 05:53 Sunny 78 25.6 37 2.8 23 23 WNW 5 7 29.74 1007 10 16.09344 0 0
6:53 am 06:53 Sunny 81 27.2 36 2.2 20 20 NE 5 7 29.77 1008 10 16.09344 0 0
7:53 am 07:53 Sunny 85 29.4 33 0.6 15 15 ESE 3 6 29.74 1007 10 16.09344 0 0
8:53 am 08:53 Sunny 91 32.8 31 -0.6 12 12 SSE 14 22 29.71 1006 10 16.09344 0 0
9:53 am 09:53 Sunny 94 34.4 31 -0.6 11 11 SSE 15 24 29.71 1006 10 16.09344 0 0
10:53 am 10:53 Sunny 98 36.7 27 -2.8 8 8 S 16 26 29.68 1005 10 16.09344 0 0
11:53 am 11:53 Sunny 101 38.3 20 -6.7 5 5 SSW 20 31 29.68 1005 10 16.09344 0 0
12:53 pm 12:53 Sunny 101 38.3 19 -7.2 5 5 SSW 15 24 29.65 1004 10 16.09344 0 0
1:53 pm 13:53 Sunny 103 39.4 20 -6.7 5 5 SSW 23 37 29.59 1002 10 16.09344 0 0
2:53 pm 14:53 Sunny 104 40 18 -7.8 4 4 SW 15 24 29.59 1002 10 16.09344 0 0
3:53 pm 15:53 Sunny 104 40 15 -9.4 4 4 SSW 17 28 29.56 1001 10 16.09344 0 0
4:53 pm 16:53 Sunny 103 39.4 12 -11.1 3 3 SSW 15 24 29.53 1000 10 16.09344 0 0
5:53 pm 17:53 Sunny 102 38.9 15 -9.4 4 4 SSW 17 28 29.5 999 10 16.09344 0 0
6:53 pm 18:53 Sunny 101 38.3 20 -6.7 5 5 SW 14 22 29.5 999 10 16.09344 0 0
7:53 pm 19:53 Sunny 98 36.7 22 -5.6 6 6 SW 13 20 29.53 1000 10 16.09344 0 0
8:53 pm 20:53 Clear 96 35.6 21 -6.1 6 6 SSW 15 24 29.56 1001 10 16.09344 0 0
9:53 pm 21:53 Clear 94 34.4 22 -5.6 7 7 SSW 9 15 29.56 1001 10 16.09344 0 0
10:53 pm 22:53 Clear 91 32.8 21 -6.1 8 8 SW 6 9 29.59 1002 10 16.09344 0 0
11:53 pm 23:53 Clear 90 32.2 22 -5.6 8 8 SW 12 19 29.59 1002 10 16.09344 0 0

Powered by AerisWeather